Regional Weather Roundup
Issued by NWS

Home | Current Version | Previous Version | Graphics & Text | Print | Product List | Glossary On
Versions: 1 2 3 4 5 6 7 8 9 10 11 12 13 14 15 16 17 18 19 20 21 22 23 24 25 26 27 28 29 30 31 32 33 34 35 36 37 38 39 40 41 42 43 44 45 46 47 48 49 50
582
ASUS43 KLMK 110210
RWRKY
KENTUCKY REGIONAL WEATHER ROUNDUP
NATIONAL WEATHER SERVICE LOUISVILLE KY
900 PM EST SUN DEC 10 2017

NOTE "FAIR" INDICATES FEW OR NO CLOUDS BELOW 12,000 FEET
WITH NO SIGNIFICANT WEATHER AND/OR OBSTRUCTIONS TO VISIBILITY.

KYZ001>023-026-027-061>063-070>075-110300-
WESTERN AND SOUTH CENTRAL KENTUCKY

CITY           SKY/WX    TMP DP  RH WIND       PRES   REMARKS
PADUCAH        CLEAR     44  30  57 SW9       30.11S
HENDERSON      CLOUDY    34  27  75 CALM      30.12R
OWENSBORO      CLOUDY    37  25  61 CALM      30.11R
HOPKINSVILLE   CLEAR     38  23  54 SW10      30.12S WCI  31
BOWLING GREEN  CLOUDY    40  22  48 SW6       30.13S
GLASGOW        CLOUDY    34  22  60 SW3       30.13R
$$

KYZ024-025-028>034-038-045-046-053-110300-
NORTH CENTRAL KENTUCKY

CITY           SKY/WX    TMP DP  RH WIND       PRES   REMARKS
LOUISVILLE/SDF CLEAR     38  22  52 SW7       30.07S WCI  33
LOUISVILLE/LOU CLEAR     35  22  58 SW7       30.08R WCI  29
FORT KNOX      CLOUDY    34  21  59 SW8       30.07R WCI  27
$$

KYZ035>037-039>044-047>052-055>060-089>105-110300-
NORTHEAST KENTUCKY

CITY           SKY/WX    TMP DP  RH WIND       PRES   REMARKS
LEXINGTON      CLEAR     32  19  58 S10       30.07R WCI  24
COVINGTON      MOCLDY    32  20  61 SW7       30.02S WCI  26
FRANKFORT      CLEAR     32  18  56 SW9       30.05S WCI  24
$$

KYZ054-064>069-076>088-106>120-110300-
SOUTHEAST KENTUCKY

CITY           SKY/WX    TMP DP  RH WIND       PRES   REMARKS
JACKSON        CLEAR     34  16  47 VRB5      30.07R WCI  30
LONDON         CLEAR     35  16  45 SW5       30.11R WCI  31
SOMERSET       CLEAR     36  19  51 SW7       30.14R WCI  30
MIDDLESBORO    CLEAR     37  21  53 S8        30.14R WCI  30
MONTICELLO     CLEAR     38  23  55 SW16      30.14R WCI  29
$$





USA.gov is the U.S. government's official web portal to all federal, state and local government web resources and services.